"Pseudo-MPEC" for A115NMf

Created 2024 Apr 21 15:22:03 UT using Find_Orb

Click here for an explanation of pseudo-MPECs

 
 Astrometry: 
     A115NMf* C2024 04 16bSccXSTGLemitc$`Astrometry638$(#]xkE,7%cXL=6Yr7ODVBgT05
     A115NMf  C2024 04 16Q,EkvX)!:,89R7yibiOh-?!YWQWredacted;3sxYC/VV81pyI/+`T05
     A115NMf  C2024 04 16ct#KRn%Ko8(optGclick4-jx=FjN=iQN8iIooAhere!=FL2^/3-%T05
     A115NMf  C2024 04 16aT9HxkfE\n%FvT^@W-ixb,D4r\C_iHFwIu-5@C]6I)3WA-4Nv26\T05
     A115NMf  C2024 04 160%Tl:5%:2Ac-(xN\)?+`a8tih`ZJp_%asQ@3cawforpDOxJe=S+mT05
     A115NMf  C2024 04 16F;A5]'o.Q.gmJ`DjM-,JWPTVT?Ma$OTJjexplanationu`(V/6-rT05

Station data:
(T05) ATLAS-HKO, Haleakala  (N20.707571 W156.257010)  US/Hawaii.  Observers
   L. Denneau, A. Heinze, H. Weiland, J. Tonry, H. Flewelling, A.
   Fitzsimmons, D. Young, B. Stalder. Measurers L. Denneau, A. Heinze, J.
   Tonry. 0.5-m f/2.0 Schmidt + CCD.

Orbital elements:  A115NMf
   Perigee 2024 Apr 15.52949 +/- 0.156 TT = 12:42:27 (JD 2460416.02949)
Epoch 2024 Apr 16.0 TT = JDT 2460416.5                           AutoNEOCP
M 128.00116765 +/- 25               (J2000 equator)
n 272.04599475 +/- 35.6             Peri.  323.74375 +/- 4.8
a 50914.5545 +/- 4446               Node    54.18566 +/- 0.38
e   0.5743254 +/- 0.0294            Incl.   12.48820 +/- 0.16
P1905.52m/1.323d           H 32.84  G  0.15   U 15.1
q 21673.0279 +/- 3189    Q 80156.0812 +/- 5904
5 of 6 observations 2024 Apr. 16 (49.2 min); mean residual 2".42
Residuals in arcseconds: 
240416 T05  2.8+  .98-    240416 T05  4.5-  1.5+    240416 T05  4.4+  1.6-    
240416 T05(29.8+ 10.1-)   240416 T05  .62-  .35+    240416 T05  2.2-  .76+    

Ephemerides (geocentric):
Date (UTC) HH   RA             Dec           delta  r     elong  mag " sig PA
---- --------  ------------   ------------  ------ ------ -----  --- --------
2024 04 21 15  14 05 57.101   +04 51 55.58   77550 1.0055 163.0 17.3  57d 102
2024 04 21 16  14 22 00.996   +04 02 09.55   75725 1.0055 162.8 17.3  56d 102
2024 04 21 17  14 38 57.089   +03 08 18.14   73404 1.0055 161.7 17.2  56d 102
2024 04 21 18  14 57 05.346   +02 09 23.01   70569 1.0055 159.6 17.2  56d 102
2024 04 21 19  15 16 52.357   +01 04 07.11   67197 1.0055 156.5 17.2  57d 102
2024 04 21 20  15 38 55.293   -00 09 12.97   63261 1.0055 152.4 17.2  58d 103
2024 04 21 21  16 04 08.897   -01 32 57.84   58729 1.0054 147.2 17.2  61d 102
2024 04 21 22  16 33 58.558   -03 10 18.72   53569 1.0054 140.6 17.2  65d 102
2024 04 21 23  17 10 46.658   -05 05 24.55   47756 1.0054 132.2 17.2  71d 101
2024 04 22 00  17 58 49.609   -07 22 32.08   41302 1.0053 120.9 17.2  80d 100
2024 04 22 01  19 06 27.534   -09 59 54.51   34347 1.0052 104.9 17.3  93d  98
2024 04 22 02  20 50 21.675   -12 16 28.40   27450 1.0051  80.5 17.8 116d  92
2024 04 22 03  23 33 44.153   -10 56 41.07   22405 1.0051  43.0 20?? 152d  84
2024 04 22 04  02 53 14.325   -02 21 44.75   22385 1.0051  19.7 24?? 161d  78
2024 04 22 05  05 30 18.040   +06 03 29.17   27409 1.0051  52.2 19?? 125d  79
2024 04 22 06  07 12 38.817   +10 12 02.69   34302 1.0052  76.3 18.5 103d  83
2024 04 22 07  08 21 25.804   +11 52 43.59   41261 1.0052  92.5 18.1  90d  86
2024 04 22 08  09 11 13.262   +12 26 47.06   47719 1.0053 104.1 18.0  82d  89
2024 04 22 09  09 49 41.056   +12 29 46.38   53537 1.0054 113.0 18.0  77d  91
2024 04 22 10  10 20 56.284   +12 17 08.76   58701 1.0055 120.1 18.0  75d  92
2024 04 22 11  10 47 20.812   +11 56 04.55   63237 1.0055 126.1 18.0  74d  94
2024 04 22 12  11 10 21.686   +11 30 06.60   67177 1.0056 131.3 17.9  75d  95
2024 04 22 13  11 30 55.563   +11 01 05.07   70552 1.0056 135.9 17.9  78d  96
2024 04 22 14  11 49 41.280   +10 29 58.09   73390 1.0057 140.1 17.9  83d  97
2024 04 22 15  12 07 06.750   +09 57 15.59   75714 1.0057 143.8 17.8  91d  98
2024 04 22 16  12 23 32.949   +09 23 11.26   77542 1.0058 147.3 17.8 104d  98
2024 04 22 17  12 39 16.364   +08 47 48.69   78888 1.0058 150.5 17.7 125d  99
2024 04 22 18  12 54 30.576   +08 11 04.58   79763 1.0058 153.4 17.7 158d 100
2024 04 22 19  13 09 27.348   +07 32 50.39   80172 1.0059 156.1 17.6 162d 100
2024 04 22 20  13 24 17.447   +06 52 53.00   80120 1.0059 158.5 17.5 129d 101
2024 04 22 21  13 39 11.312   +06 10 54.66   79604 1.0059 160.5 17.5 107d 101
2024 04 22 22  13 54 19.694   +05 26 32.52   78623 1.0059 162.0 17.4  94d 101
2024 04 22 23  14 09 54.341   +04 39 17.47   77168 1.0059 162.8 17.3  85d 102
2024 04 23 00  14 26 08.836   +03 48 32.45   75228 1.0059 162.7 17.3  80d 102
2024 04 23 01  14 43 19.753   +02 53 29.79   72789 1.0059 161.7 17.2  76d 102
2024 04 23 02  15 01 48.344   +01 53 07.35   69832 1.0059 159.6 17.2  74d 102
2024 04 23 03  15 22 03.230   +00 46 02.78   66331 1.0059 156.4 17.2  74d 103
2024 04 23 04  15 44 44.899   -00 29 34.77   62260 1.0058 152.2 17.2  75d 103
2024 04 23 05  16 10 53.739   -01 56 16.21   57585 1.0058 146.8 17.2  77d 102
2024 04 23 06  16 42 05.337   -03 37 25.66   52275 1.0058 139.9 17.2  80d 102
2024 04 23 07  17 21 01.798   -05 37 21.61   46310 1.0057 131.0 17.1  86d 101
2024 04 23 08  18 12 40.643   -07 59 50.76   39720 1.0056 118.9 17.2  96d 100
2024 04 23 09  19 26 50.969   -10 38 46.76   32703 1.0056 101.4 17.3 110d  97
2024 04 23 10  21 22 44.649   -12 30 43.21   26010 1.0055  74.3 18.0 135d  91
2024 04 23 11  00 20 07.641   -09 30 44.38   21859 1.0054  34.2 21?? 175d  82
2024 04 23 12  03 35 30.375   -00 00 58.89   23220 1.0054  25.8 23?? 138d  77
2024 04 23 13  05 58 22.492   +07 22 54.03   28942 1.0055  57.5 19?? 105d  80
2024 04 23 14  07 31 08.583   +10 46 14.90   35945 1.0055  79.4 18.4  86d  84